Time,TemperatureF,DewpointF,PressureIn,WindDirection,WindDirectionDegrees,WindSpeedMPH,WindSpeedGustMPH,Humidity,HourlyPrecipIn,Conditions,Clouds,dailyrainin,SoftwareType,DateUTC
2013-03-25 00:00:00,46.6,44.4,29.63,West,275,0.0,4.0,92,0.00,,,0.00,WeatherCatV1.11B39,2013-03-25 04:00:00,
2013-03-25 00:01:00,46.6,44.4,29.63,West,275,2.0,3.0,92,0.00,,,0.00,WeatherCatV1.11B39,2013-03-25 04:01:00,
2013-03-25 00:06:00,46.6,44.4,29.63,West,275,0.0,1.0,92,0.00,,,0.00,WeatherCatV1.11B39,2013-03-25 04:06:00,
2013-03-25 00:11:00,46.5,44.3,29.63,West,275,2.0,2.0,92,0.00,,,0.00,WeatherCatV1.11B39,2013-03-25 04:11:00,
2013-03-25 00:16:00,46.6,44.4,29.63,West,275,1.0,4.0,92,0.00,,,0.00,WeatherCatV1.11B39,2013-03-25 04:16:00,
2013-03-25 00:21:00,46.6,44.4,29.63,West,273,0.0,3.0,92,0.00,,,0.00,WeatherCatV1.11B39,2013-03-25 04:21:00,
2013-03-25 00:26:00,46.5,44.3,29.63,West,273,1.0,3.0,92,0.00,,,0.00,WeatherCatV1.11B39,2013-03-25 04:26:00,
2013-03-25 00:31:00,46.6,44.4,29.64,West,272,0.0,0.0,92,0.00,,,0.00,WeatherCatV1.11B39,2013-03-25 04:31:00,
2013-03-25 00:36:00,46.6,44.4,29.63,West,272,0.0,3.0,92,0.00,,,0.00,WeatherCatV1.11B39,2013-03-25 04:36:00,
2013-03-25 00:41:00,46.7,44.5,29.63,WSW,255,3.0,4.0,92,0.00,,,0.00,WeatherCatV1.11B39,2013-03-25 04:41:00,
2013-03-25 00:46:00,46.7,44.5,29.63,WSW,242,4.0,5.0,92,0.00,,,0.00,WeatherCatV1.11B39,2013-03-25 04:46:00,
2013-03-25 00:51:00,46.8,44.6,29.63,WSW,246,4.0,4.0,92,0.00,,,0.00,WeatherCatV1.11B39,2013-03-25 04:51:00,
2013-03-25 00:56:00,46.8,44.6,29.64,WSW,250,0.0,4.0,92,0.00,,,0.00,WeatherCatV1.11B39,2013-03-25 04:56:00,
2013-03-25 01:01:00,46.7,44.5,29.64,WSW,250,0.0,0.0,92,0.00,,,0.00,WeatherCatV1.11B39,2013-03-25 05:01:00,
2013-03-25 01:06:00,46.6,44.4,29.64,WSW,250,0.0,2.0,92,0.00,,,0.00,WeatherCatV1.11B39,2013-03-25 05:06:00,
2013-03-25 01:11:00,46.4,44.2,29.64,West,263,4.0,8.0,92,0.00,,,0.00,WeatherCatV1.11B39,2013-03-25 05:11:00,
2013-03-25 01:16:00,46.1,43.9,29.64,West,266,0.0,3.0,92,0.00,,,0.00,WeatherCatV1.11B39,2013-03-25 05:16:00,
2013-03-25 01:21:00,46.0,43.8,29.64,West,270,2.0,5.0,92,0.00,,,0.00,WeatherCatV1.11B39,2013-03-25 05:21:00,
2013-03-25 01:26:00,45.9,43.7,29.64,West,270,0.0,0.0,92,0.00,,,0.00,WeatherCatV1.11B39,2013-03-25 05:26:00,
2013-03-25 01:31:00,45.9,43.7,29.64,West,270,0.0,0.0,92,0.00,,,0.00,WeatherCatV1.11B39,2013-03-25 05:31:00,
2013-03-25 01:36:00,45.7,43.5,29.63,West,270,2.0,2.0,92,0.00,,,0.00,WeatherCatV1.11B39,2013-03-25 05:36:00,
2013-03-25 01:41:00,45.4,43.2,29.63,West,270,0.0,3.0,92,0.00,,,0.00,WeatherCatV1.11B39,2013-03-25 05:41:00,
2013-03-25 01:46:00,45.2,43.0,29.64,West,270,0.0,2.0,92,0.00,,,0.00,WeatherCatV1.11B39,2013-03-25 05:46:00,
2013-03-25 01:51:00,45.0,42.8,29.64,West,270,0.0,0.0,92,0.00,,,0.00,WeatherCatV1.11B39,2013-03-25 05:51:00,
2013-03-25 01:56:00,45.0,42.8,29.64,West,270,0.0,3.0,92,0.00,,,0.00,WeatherCatV1.11B39,2013-03-25 05:56:00,
2013-03-25 02:01:00,44.9,42.7,29.65,West,267,2.0,4.0,92,0.00,,,0.00,WeatherCatV1.11B39,2013-03-25 06:01:00,
2013-03-25 02:06:00,45.1,42.9,29.65,WSW,250,5.0,10.0,92,0.00,,,0.00,WeatherCatV1.11B39,2013-03-25 06:06:00,
2013-03-25 02:11:00,45.5,43.6,29.65,West,266,6.0,14.0,93,0.00,,,0.00,WeatherCatV1.11B39,2013-03-25 06:11:00,
2013-03-25 02:17:00,45.5,43.3,29.65,NNW,334,15.0,15.0,92,0.00,,,0.00,WeatherCatV1.11B39,2013-03-25 06:17:00,
2013-03-25 02:22:00,45.6,43.4,29.66,West,281,7.0,18.0,92,0.00,,,0.00,WeatherCatV1.11B39,2013-03-25 06:22:00,
2013-03-25 02:27:00,45.6,43.4,29.66,WNW,291,5.0,15.0,92,0.00,,,0.00,WeatherCatV1.11B39,2013-03-25 06:27:00,
2013-03-25 02:32:00,45.8,43.3,29.66,WNW,292,3.0,10.0,91,0.00,,,0.00,WeatherCatV1.11B39,2013-03-25 06:32:00,
2013-03-25 02:37:00,46.0,43.2,29.66,NW,321,2.0,9.0,90,0.00,,,0.00,WeatherCatV1.11B39,2013-03-25 06:37:00,
2013-03-25 02:42:00,46.0,42.6,29.66,NNW,333,7.0,24.0,88,0.00,,,0.00,WeatherCatV1.11B39,2013-03-25 06:42:00,
2013-03-25 02:47:00,46.0,41.7,29.67,NNW,336,7.0,20.0,85,0.00,,,0.00,WeatherCatV1.11B39,2013-03-25 06:47:00,
2013-03-25 02:52:00,45.8,40.9,29.67,NNW,328,4.0,16.0,83,0.00,,,0.00,WeatherCatV1.11B39,2013-03-25 06:52:00,
2013-03-25 02:57:00,45.6,39.8,29.68,WNW,302,2.0,14.0,80,0.00,,,0.00,WeatherCatV1.11B39,2013-03-25 06:57:00,
2013-03-25 03:02:00,45.2,38.4,29.68,WNW,297,7.0,11.0,77,0.00,,,0.00,WeatherCatV1.11B39,2013-03-25 07:02:00,
2013-03-25 03:07:00,45.0,37.9,29.67,NNW,336,5.0,15.0,76,0.00,,,0.00,WeatherCatV1.11B39,2013-03-25 07:07:00,
2013-03-25 03:12:00,44.6,37.2,29.68,WNW,284,7.0,16.0,75,0.00,,,0.00,WeatherCatV1.11B39,2013-03-25 07:12:00,
2013-03-25 03:17:00,44.5,37.1,29.68,NW,306,3.0,5.0,75,0.00,,,0.00,WeatherCatV1.11B39,2013-03-25 07:17:00,
2013-03-25 03:22:00,44.2,36.8,29.68,NW,304,2.0,11.0,75,0.00,,,0.00,WeatherCatV1.11B39,2013-03-25 07:22:00,
2013-03-25 03:27:00,43.9,36.5,29.68,West,275,14.0,15.0,75,0.00,,,0.00,WeatherCatV1.11B39,2013-03-25 07:27:00,
2013-03-25 03:32:00,43.8,36.1,29.68,NW,304,7.0,14.0,74,0.00,,,0.00,WeatherCatV1.11B39,2013-03-25 07:32:00,
2013-03-25 03:37:00,43.6,35.9,29.69,WSW,254,11.0,11.0,74,0.00,,,0.00,WeatherCatV1.11B39,2013-03-25 07:37:00,
2013-03-25 03:42:00,43.4,36.0,29.69,WNW,300,0.0,9.0,75,0.00,,,0.00,WeatherCatV1.11B39,2013-03-25 07:42:00,
2013-03-25 03:47:00,43.2,35.8,29.69,NW,322,6.0,8.0,75,0.00,,,0.00,WeatherCatV1.11B39,2013-03-25 07:47:00,
2013-03-25 03:52:00,43.0,35.6,29.68,West,261,0.0,9.0,75,0.00,,,0.00,WeatherCatV1.11B39,2013-03-25 07:52:00,
2013-03-25 03:57:00,42.8,35.8,29.68,West,267,5.0,8.0,76,0.00,,,0.00,WeatherCatV1.11B39,2013-03-25 07:57:00,
2013-03-25 04:02:00,42.6,35.6,29.69,WNW,296,7.0,7.0,76,0.00,,,0.00,WeatherCatV1.11B39,2013-03-25 08:02:00,
2013-03-25 04:07:00,42.4,35.0,29.69,West,264,4.0,4.0,75,0.00,,,0.00,WeatherCatV1.11B39,2013-03-25 08:07:00,
2013-03-25 04:12:00,42.2,34.9,29.69,WSW,253,4.0,12.0,75,0.00,,,0.00,WeatherCatV1.11B39,2013-03-25 08:12:00,
2013-03-25 04:17:00,42.0,34.0,29.69,WSW,254,5.0,9.0,73,0.00,,,0.00,WeatherCatV1.11B39,2013-03-25 08:17:00,
2013-03-25 04:22:00,42.1,33.7,29.70,WSW,251,9.0,11.0,72,0.00,,,0.00,WeatherCatV1.11B39,2013-03-25 08:22:00,
2013-03-25 04:27:00,42.4,33.7,29.70,WSW,244,4.0,8.0,71,0.00,,,0.00,WeatherCatV1.11B39,2013-03-25 08:27:00,
2013-03-25 04:32:00,42.3,32.9,29.70,NW,304,3.0,8.0,69,0.00,,,0.00,WeatherCatV1.11B39,2013-03-25 08:32:00,
2013-03-25 04:37:00,42.3,32.9,29.70,SSW,205,2.0,13.0,69,0.00,,,0.00,WeatherCatV1.11B39,2013-03-25 08:37:00,
2013-03-25 04:42:00,42.3,32.1,29.70,WSW,250,8.0,15.0,67,0.00,,,0.00,WeatherCatV1.11B39,2013-03-25 08:42:00,
2013-03-25 04:47:00,42.4,32.2,29.71,WSW,242,3.0,9.0,67,0.00,,,0.00,WeatherCatV1.11B39,2013-03-25 08:47:00,
2013-03-25 04:52:00,42.5,32.0,29.71,West,275,3.0,12.0,66,0.00,,,0.00,WeatherCatV1.11B39,2013-03-25 08:52:00,
2013-03-25 04:57:00,42.6,32.0,29.70,WSW,244,9.0,13.0,66,0.00,,,0.00,WeatherCatV1.11B39,2013-03-25 08:57:00,
2013-03-25 05:02:00,42.6,31.7,29.71,WNW,302,13.0,13.0,65,0.00,,,0.00,WeatherCatV1.11B39,2013-03-25 09:02:00,
2013-03-25 05:07:00,42.6,32.0,29.71,WSW,256,10.0,10.0,66,0.00,,,0.00,WeatherCatV1.11B39,2013-03-25 09:07:00,
2013-03-25 05:12:00,42.5,32.0,29.71,WSW,248,5.0,10.0,66,0.00,,,0.00,WeatherCatV1.11B39,2013-03-25 09:12:00,
2013-03-25 05:17:00,42.4,31.9,29.71,WSW,257,1.0,10.0,66,0.00,,,0.00,WeatherCatV1.11B39,2013-03-25 09:17:00,
2013-03-25 05:22:00,42.3,31.8,29.71,WNW,283,2.0,7.0,66,0.00,,,0.00,WeatherCatV1.11B39,2013-03-25 09:22:00,
2013-03-25 05:27:00,42.2,32.0,29.71,WSW,248,6.0,8.0,67,0.00,,,0.00,WeatherCatV1.11B39,2013-03-25 09:27:00,
2013-03-25 05:32:00,42.1,32.3,29.71,SW,234,7.0,9.0,68,0.00,,,0.00,WeatherCatV1.11B39,2013-03-25 09:32:00,
2013-03-25 05:37:00,42.0,31.9,29.71,WNW,300,3.0,10.0,67,0.00,,,0.00,WeatherCatV1.11B39,2013-03-25 09:37:00,
2013-03-25 05:42:00,42.0,32.2,29.71,WSW,238,3.0,8.0,68,0.00,,,0.00,WeatherCatV1.11B39,2013-03-25 09:42:00,
2013-03-25 05:47:00,42.0,31.5,29.71,WSW,240,2.0,13.0,66,0.00,,,0.00,WeatherCatV1.11B39,2013-03-25 09:47:00,
2013-03-25 05:52:00,42.0,31.9,29.71,SW,231,3.0,5.0,67,0.00,,,0.00,WeatherCatV1.11B39,2013-03-25 09:52:00,
2013-03-25 05:57:00,41.9,32.1,29.72,WNW,286,1.0,4.0,68,0.00,,,0.00,WeatherCatV1.11B39,2013-03-25 09:57:00,
2013-03-25 06:02:00,41.8,31.7,29.72,WNW,283,7.0,16.0,67,0.00,,,0.00,WeatherCatV1.11B39,2013-03-25 10:02:00,
2013-03-25 06:07:00,41.9,31.4,29.72,WSW,245,4.0,8.0,66,0.00,,,0.00,WeatherCatV1.11B39,2013-03-25 10:07:00,
2013-03-25 06:12:00,41.9,31.4,29.72,WNW,284,0.0,7.0,66,0.00,,,0.00,WeatherCatV1.11B39,2013-03-25 10:12:00,
2013-03-25 06:17:00,41.9,31.4,29.73,West,264,6.0,11.0,66,0.00,,,0.00,WeatherCatV1.11B39,2013-03-25 10:17:00,
2013-03-25 06:22:00,41.9,31.8,29.73,WSW,237,3.0,12.0,67,0.00,,,0.00,WeatherCatV1.11B39,2013-03-25 10:22:00,
2013-03-25 06:28:00,41.9,31.0,29.73,West,267,0.0,6.0,65,0.00,,,0.00,WeatherCatV1.11B39,2013-03-25 10:28:00,
2013-03-25 06:33:00,42.0,31.1,29.73,West,267,4.0,14.0,65,0.00,,,0.00,WeatherCatV1.11B39,2013-03-25 10:33:00,
2013-03-25 06:38:00,42.0,30.7,29.72,WSW,250,2.0,8.0,64,0.00,,,0.00,WeatherCatV1.11B39,2013-03-25 10:38:00,
2013-03-25 06:43:00,42.0,30.7,29.73,WSW,255,3.0,10.0,64,0.00,,,0.00,WeatherCatV1.11B39,2013-03-25 10:43:00,
2013-03-25 06:48:00,42.0,30.7,29.73,WSW,244,3.0,9.0,64,0.00,,,0.00,WeatherCatV1.11B39,2013-03-25 10:48:00,
2013-03-25 06:53:00,42.0,30.7,29.73,West,265,12.0,15.0,64,0.00,,,0.00,WeatherCatV1.11B39,2013-03-25 10:53:00,
2013-03-25 06:58:00,42.0,31.1,29.73,WSW,245,7.0,11.0,65,0.00,,,0.00,WeatherCatV1.11B39,2013-03-25 10:58:00,
2013-03-25 07:03:00,42.0,30.7,29.74,WNW,300,6.0,14.0,64,0.00,,,0.00,WeatherCatV1.11B39,2013-03-25 11:03:00,
2013-03-25 07:08:00,41.9,29.4,29.74,West,281,10.0,24.0,61,0.00,,,0.00,WeatherCatV1.11B39,2013-03-25 11:08:00,
2013-03-25 07:13:00,41.9,29.0,29.74,WNW,286,13.0,28.0,60,0.00,,,0.00,WeatherCatV1.11B39,2013-03-25 11:13:00,
2013-03-25 07:18:00,41.7,28.9,29.74,NW,306,3.0,14.0,60,0.00,,,0.00,WeatherCatV1.11B39,2013-03-25 11:18:00,
2013-03-25 07:23:00,41.6,28.3,29.75,SW,227,17.0,17.0,59,0.00,,,0.00,WeatherCatV1.11B39,2013-03-25 11:23:00,
2013-03-25 07:28:00,41.5,28.7,29.75,NW,312,4.0,15.0,60,0.00,,,0.00,WeatherCatV1.11B39,2013-03-25 11:28:00,
2013-03-25 07:33:00,41.5,29.1,29.75,NNW,345,2.0,14.0,61,0.00,,,0.00,WeatherCatV1.11B39,2013-03-25 11:33:00,
2013-03-25 07:38:00,41.4,28.6,29.76,WNW,302,5.0,19.0,60,0.00,,,0.00,WeatherCatV1.11B39,2013-03-25 11:38:00,
2013-03-25 07:43:00,41.4,28.6,29.75,WNW,298,5.0,13.0,60,0.00,,,0.00,WeatherCatV1.11B39,2013-03-25 11:43:00,
2013-03-25 07:48:00,41.3,28.5,29.75,West,281,12.0,20.0,60,0.00,,,0.00,WeatherCatV1.11B39,2013-03-25 11:48:00,
2013-03-25 07:53:00,41.2,28.4,29.76,WNW,294,6.0,17.0,60,0.00,,,0.00,WeatherCatV1.11B39,2013-03-25 11:53:00,
2013-03-25 07:58:00,41.2,28.0,29.76,WNW,293,10.0,14.0,59,0.00,,,0.00,WeatherCatV1.11B39,2013-03-25 11:58:00,
2013-03-25 08:03:00,41.2,28.0,29.76,NW,304,5.0,12.0,59,0.00,,,0.00,WeatherCatV1.11B39,2013-03-25 12:03:00,
2013-03-25 08:08:00,41.1,27.9,29.76,WNW,302,6.0,10.0,59,0.00,,,0.00,WeatherCatV1.11B39,2013-03-25 12:08:00,
2013-03-25 08:13:00,41.2,27.6,29.76,WSW,253,0.0,10.0,58,0.00,,,0.00,WeatherCatV1.11B39,2013-03-25 12:13:00,
2013-03-25 08:18:00,41.3,28.1,29.77,WNW,298,0.0,8.0,59,0.00,,,0.00,WeatherCatV1.11B39,2013-03-25 12:18:00,
2013-03-25 08:23:00,41.3,28.1,29.77,NW,312,1.0,9.0,59,0.00,,,0.00,WeatherCatV1.11B39,2013-03-25 12:23:00,
2013-03-25 08:28:00,41.4,28.2,29.77,West,261,3.0,9.0,59,0.00,,,0.00,WeatherCatV1.11B39,2013-03-25 12:28:00,
2013-03-25 08:33:00,41.4,28.2,29.77,NW,310,5.0,13.0,59,0.00,,,0.00,WeatherCatV1.11B39,2013-03-25 12:33:00,
2013-03-25 08:38:00,41.5,27.8,29.77,West,268,7.0,19.0,58,0.00,,,0.00,WeatherCatV1.11B39,2013-03-25 12:38:00,
2013-03-25 08:43:00,41.6,27.5,29.77,West,261,18.0,21.0,57,0.00,,,0.00,WeatherCatV1.11B39,2013-03-25 12:43:00,
2013-03-25 08:48:00,41.7,28.4,29.78,WSW,238,4.0,16.0,59,0.00,,,0.00,WeatherCatV1.11B39,2013-03-25 12:48:00,
2013-03-25 08:53:00,41.8,28.5,29.78,West,259,4.0,15.0,59,0.00,,,0.00,WeatherCatV1.11B39,2013-03-25 12:53:00,
2013-03-25 08:58:00,41.9,28.2,29.77,WNW,283,10.0,17.0,58,0.00,,,0.00,WeatherCatV1.11B39,2013-03-25 12:58:00,
2013-03-25 09:03:00,41.9,28.2,29.78,West,273,5.0,13.0,58,0.00,,,0.00,WeatherCatV1.11B39,2013-03-25 13:03:00,
2013-03-25 09:08:00,42.0,28.3,29.78,West,265,3.0,18.0,58,0.00,,,0.00,WeatherCatV1.11B39,2013-03-25 13:08:00,
2013-03-25 09:13:00,42.0,28.3,29.79,WNW,294,11.0,18.0,58,0.00,,,0.00,WeatherCatV1.11B39,2013-03-25 13:13:00,
2013-03-25 09:18:00,42.0,27.5,29.79,WNW,300,16.0,31.0,56,0.00,,,0.00,WeatherCatV1.11B39,2013-03-25 13:18:00,
2013-03-25 09:23:00,42.5,28.4,29.79,WSW,244,24.0,24.0,57,0.00,,,0.00,WeatherCatV1.11B39,2013-03-25 13:23:00,
2013-03-25 09:28:00,42.9,26.5,29.79,NW,308,12.0,19.0,52,0.00,,,0.00,WeatherCatV1.11B39,2013-03-25 13:28:00,
2013-03-25 09:33:00,43.4,26.5,29.79,NNW,337,12.0,19.0,51,0.00,,,0.00,WeatherCatV1.11B39,2013-03-25 13:33:00,
2013-03-25 09:38:00,43.5,26.6,29.79,NW,305,11.0,16.0,51,0.00,,,0.00,WeatherCatV1.11B39,2013-03-25 13:38:00,
2013-03-25 09:43:00,43.4,26.0,29.80,WNW,302,25.0,30.0,50,0.00,,,0.00,WeatherCatV1.11B39,2013-03-25 13:43:00,
2013-03-25 09:48:00,43.4,25.0,29.80,NW,313,20.0,35.0,48,0.00,,,0.00,WeatherCatV1.11B39,2013-03-25 13:48:00,
2013-03-25 09:53:00,43.5,25.1,29.80,NNW,338,5.0,16.0,48,0.00,,,0.00,WeatherCatV1.11B39,2013-03-25 13:53:00,
2013-03-25 09:58:00,43.7,25.3,29.81,NNE,29,9.0,25.0,48,0.00,,,0.00,WeatherCatV1.11B39,2013-03-25 13:58:00,
2013-03-25 10:03:00,43.8,26.4,29.81,West,281,8.0,15.0,50,0.00,,,0.00,WeatherCatV1.11B39,2013-03-25 14:03:00,
2013-03-25 10:08:00,44.0,27.0,29.80,SW,229,4.0,12.0,51,0.00,,,0.00,WeatherCatV1.11B39,2013-03-25 14:08:00,
2013-03-25 10:14:00,43.9,26.0,29.81,NNW,340,24.0,30.0,49,0.00,,,0.00,WeatherCatV1.11B39,2013-03-25 14:14:00,
2013-03-25 10:19:00,43.6,26.2,29.81,WNW,297,18.0,19.0,50,0.00,,,0.00,WeatherCatV1.11B39,2013-03-25 14:19:00,
2013-03-25 10:24:00,43.4,25.5,29.81,WNW,302,9.0,25.0,49,0.00,,,0.00,WeatherCatV1.11B39,2013-03-25 14:24:00,
2013-03-25 10:29:00,43.4,26.0,29.82,West,281,15.0,26.0,50,0.00,,,0.00,WeatherCatV1.11B39,2013-03-25 14:29:00,
2013-03-25 10:34:00,43.5,26.1,29.82,NNW,329,12.0,18.0,50,0.00,,,0.00,WeatherCatV1.11B39,2013-03-25 14:34:00,
2013-03-25 10:39:00,43.7,26.3,29.82,NW,325,3.0,15.0,50,0.00,,,0.00,WeatherCatV1.11B39,2013-03-25 14:39:00,
2013-03-25 10:44:00,43.8,27.3,29.82,NW,315,10.0,15.0,52,0.00,,,0.00,WeatherCatV1.11B39,2013-03-25 14:44:00,
2013-03-25 10:49:00,43.8,26.9,29.82,West,279,14.0,20.0,51,0.00,,,0.00,WeatherCatV1.11B39,2013-03-25 14:49:00,
2013-03-25 10:54:00,43.9,27.4,29.82,West,270,9.0,14.0,52,0.00,,,0.00,WeatherCatV1.11B39,2013-03-25 14:54:00,
2013-03-25 10:59:00,44.1,28.1,29.83,WSW,249,10.0,22.0,53,0.00,,,0.00,WeatherCatV1.11B39,2013-03-25 14:59:00,
2013-03-25 11:04:00,44.3,27.3,29.83,West,280,9.0,14.0,51,0.00,,,0.00,WeatherCatV1.11B39,2013-03-25 15:04:00,
2013-03-25 11:09:00,44.3,27.8,29.83,NW,309,6.0,14.0,52,0.00,,,0.00,WeatherCatV1.11B39,2013-03-25 15:09:00,
2013-03-25 11:14:00,44.3,27.3,29.83,WSW,254,8.0,14.0,51,0.00,,,0.00,WeatherCatV1.11B39,2013-03-25 15:14:00,
2013-03-25 11:19:00,44.0,28.0,29.83,West,262,0.0,17.0,53,0.00,,,0.00,WeatherCatV1.11B39,2013-03-25 15:19:00,
2013-03-25 11:24:00,44.2,28.2,29.83,NNW,327,8.0,18.0,53,0.00,,,0.00,WeatherCatV1.11B39,2013-03-25 15:24:00,
2013-03-25 11:29:00,45.4,28.8,29.83,WNW,300,10.0,11.0,52,0.00,,,0.00,WeatherCatV1.11B39,2013-03-25 15:29:00,
2013-03-25 11:34:00,45.9,29.3,29.83,WSW,257,12.0,16.0,52,0.00,,,0.00,WeatherCatV1.11B39,2013-03-25 15:34:00,
2013-03-25 11:39:00,45.4,29.3,29.84,NNW,343,10.0,19.0,53,0.00,,,0.00,WeatherCatV1.11B39,2013-03-25 15:39:00,
2013-03-25 11:44:00,44.9,28.4,29.84,NW,306,10.0,20.0,52,0.00,,,0.00,WeatherCatV1.11B39,2013-03-25 15:44:00,
2013-03-25 11:49:00,45.6,29.0,29.84,West,279,4.0,18.0,52,0.00,,,0.00,WeatherCatV1.11B39,2013-03-25 15:49:00,
2013-03-25 11:54:00,46.1,30.8,29.85,WSW,252,11.0,19.0,55,0.00,,,0.00,WeatherCatV1.11B39,2013-03-25 15:54:00,
2013-03-25 11:59:00,46.7,28.6,29.84,WNW,300,6.0,13.0,49,0.00,,,0.00,WeatherCatV1.11B39,2013-03-25 15:59:00,
2013-03-25 12:04:00,47.7,26.9,29.83,West,275,10.0,22.0,44,0.00,,,0.00,WeatherCatV1.11B39,2013-03-25 16:04:00,
2013-03-25 12:09:00,47.9,27.0,29.84,WNW,290,22.0,22.0,44,0.00,,,0.00,WeatherCatV1.11B39,2013-03-25 16:09:00,
2013-03-25 12:14:00,47.5,26.7,29.84,SW,228,7.0,19.0,44,0.00,,,0.00,WeatherCatV1.11B39,2013-03-25 16:14:00,
2013-03-25 12:19:00,47.4,27.1,29.83,NW,306,1.0,12.0,45,0.00,,,0.00,WeatherCatV1.11B39,2013-03-25 16:19:00,
2013-03-25 12:24:00,48.1,27.8,29.84,NW,309,16.0,22.0,45,0.00,,,0.00,WeatherCatV1.11B39,2013-03-25 16:24:00,
2013-03-25 12:29:00,47.8,25.8,29.83,NNW,329,5.0,25.0,42,0.00,,,0.00,WeatherCatV1.11B39,2013-03-25 16:29:00,
2013-03-25 12:34:00,47.8,26.4,29.84,NW,315,14.0,17.0,43,0.00,,,0.00,WeatherCatV1.11B39,2013-03-25 16:34:00,
2013-03-25 12:39:00,47.6,25.7,29.84,NW,317,15.0,22.0,42,0.00,,,0.00,WeatherCatV1.11B39,2013-03-25 16:39:00,
2013-03-25 12:44:00,48.1,27.2,29.84,WNW,300,10.0,11.0,44,0.00,,,0.00,WeatherCatV1.11B39,2013-03-25 16:44:00,
2013-03-25 12:49:00,48.4,26.4,29.84,SW,219,27.0,27.0,42,0.00,,,0.00,WeatherCatV1.11B39,2013-03-25 16:49:00,
2013-03-25 12:54:00,47.9,25.3,29.84,NW,304,9.0,15.0,41,0.00,,,0.00,WeatherCatV1.11B39,2013-03-25 16:54:00,
2013-03-25 12:59:00,47.8,26.4,29.84,West,274,11.0,23.0,43,0.00,,,0.00,WeatherCatV1.11B39,2013-03-25 16:59:00,
2013-03-25 13:04:00,48.5,27.0,29.84,NW,304,21.0,21.0,43,0.00,,,0.00,WeatherCatV1.11B39,2013-03-25 17:04:00,
2013-03-25 13:09:00,48.3,25.7,29.84,North,5,9.0,24.0,41,0.00,,,0.00,WeatherCatV1.11B39,2013-03-25 17:09:00,
2013-03-25 13:14:00,48.3,25.7,29.85,NW,308,14.0,22.0,41,0.00,,,0.00,WeatherCatV1.11B39,2013-03-25 17:14:00,
2013-03-25 13:19:00,49.4,27.3,29.84,WNW,282,16.0,16.0,42,0.00,,,0.00,WeatherCatV1.11B39,2013-03-25 17:19:00,
2013-03-25 13:24:00,48.9,25.0,29.84,WNW,296,10.0,29.0,39,0.00,,,0.00,WeatherCatV1.11B39,2013-03-25 17:24:00,
2013-03-25 13:29:00,47.8,25.8,29.84,NW,315,12.0,18.0,42,0.00,,,0.00,WeatherCatV1.11B39,2013-03-25 17:29:00,
2013-03-25 13:34:00,48.2,25.6,29.84,NW,315,14.0,17.0,41,0.00,,,0.00,WeatherCatV1.11B39,2013-03-25 17:34:00,
2013-03-25 13:39:00,48.5,27.0,29.83,West,276,22.0,22.0,43,0.00,,,0.00,WeatherCatV1.11B39,2013-03-25 17:39:00,
2013-03-25 13:44:00,47.9,25.3,29.83,NW,304,4.0,17.0,41,0.00,,,0.00,WeatherCatV1.11B39,2013-03-25 17:44:00,
2013-03-25 13:49:00,49.4,26.7,29.84,West,260,7.0,28.0,41,0.00,,,0.00,WeatherCatV1.11B39,2013-03-25 17:49:00,
2013-03-25 13:54:00,49.7,25.8,29.84,NW,305,8.0,26.0,39,0.00,,,0.00,WeatherCatV1.11B39,2013-03-25 17:54:00,
2013-03-25 13:59:00,49.9,25.9,29.83,WNW,285,7.0,25.0,39,0.00,,,0.00,WeatherCatV1.11B39,2013-03-25 17:59:00,
2013-03-25 14:04:00,49.3,26.6,29.83,WNW,287,10.0,24.0,41,0.00,,,0.00,WeatherCatV1.11B39,2013-03-25 18:04:00,
2013-03-25 14:10:00,49.4,26.7,29.82,WNW,296,9.0,23.0,41,0.00,,,0.00,WeatherCatV1.11B39,2013-03-25 18:10:00,
2013-03-25 14:15:00,50.8,27.4,29.83,WNW,288,10.0,13.0,40,0.00,,,0.00,WeatherCatV1.11B39,2013-03-25 18:15:00,
2013-03-25 14:20:00,50.2,25.6,29.83,WSW,244,11.0,25.0,38,0.00,,,0.00,WeatherCatV1.11B39,2013-03-25 18:20:00,
2013-03-25 14:25:00,49.3,26.0,29.83,NW,325,3.0,11.0,40,0.00,,,0.00,WeatherCatV1.11B39,2013-03-25 18:25:00,
2013-03-25 14:30:00,49.4,26.1,29.83,WSW,256,9.0,14.0,40,0.00,,,0.00,WeatherCatV1.11B39,2013-03-25 18:30:00,
2013-03-25 14:35:00,49.0,25.1,29.83,NNW,327,9.0,22.0,39,0.00,,,0.00,WeatherCatV1.11B39,2013-03-25 18:35:00,
2013-03-25 14:40:00,49.3,24.8,29.83,NW,317,10.0,27.0,38,0.00,,,0.00,WeatherCatV1.11B39,2013-03-25 18:40:00,
2013-03-25 14:45:00,49.5,25.6,29.82,West,276,22.0,25.0,39,0.00,,,0.00,WeatherCatV1.11B39,2013-03-25 18:45:00,
2013-03-25 14:50:00,50.0,25.4,29.83,SW,227,7.0,20.0,38,0.00,,,0.00,WeatherCatV1.11B39,2013-03-25 18:50:00,
2013-03-25 14:55:00,50.1,25.5,29.83,NW,315,17.0,18.0,38,0.00,,,0.00,WeatherCatV1.11B39,2013-03-25 18:55:00,
2013-03-25 15:00:00,50.3,25.7,29.83,NW,313,21.0,22.0,38,0.00,,,0.00,WeatherCatV1.11B39,2013-03-25 19:00:00,
2013-03-25 15:05:00,50.8,26.1,29.82,NW,317,13.0,18.0,38,0.00,,,0.00,WeatherCatV1.11B39,2013-03-25 19:05:00,
2013-03-25 15:10:00,50.5,24.6,29.82,NNW,340,13.0,22.0,36,0.00,,,0.00,WeatherCatV1.11B39,2013-03-25 19:10:00,
2013-03-25 15:15:00,50.7,25.4,29.82,NW,323,11.0,29.0,37,0.00,,,0.00,WeatherCatV1.11B39,2013-03-25 19:15:00,
2013-03-25 15:20:00,50.8,25.5,29.82,North,355,4.0,17.0,37,0.00,,,0.00,WeatherCatV1.11B39,2013-03-25 19:20:00,
2013-03-25 15:25:00,50.3,24.4,29.83,WNW,282,8.0,26.0,36,0.00,,,0.00,WeatherCatV1.11B39,2013-03-25 19:25:00,
2013-03-25 15:30:00,50.4,25.1,29.82,WNW,294,8.0,12.0,37,0.00,,,0.00,WeatherCatV1.11B39,2013-03-25 19:30:00,
2013-03-25 15:35:00,50.7,24.7,29.82,WSW,256,15.0,22.0,36,0.00,,,0.00,WeatherCatV1.11B39,2013-03-25 19:35:00,
2013-03-25 15:40:00,50.9,25.6,29.82,WSW,250,7.0,25.0,37,0.00,,,0.00,WeatherCatV1.11B39,2013-03-25 19:40:00,
2013-03-25 15:45:00,50.8,26.1,29.82,NW,313,4.0,15.0,38,0.00,,,0.00,WeatherCatV1.11B39,2013-03-25 19:45:00,
2013-03-25 15:50:00,51.1,25.1,29.82,West,279,6.0,24.0,36,0.00,,,0.00,WeatherCatV1.11B39,2013-03-25 19:50:00,
2013-03-25 15:55:00,51.1,24.4,29.82,West,260,15.0,23.0,35,0.00,,,0.00,WeatherCatV1.11B39,2013-03-25 19:55:00,
2013-03-25 16:00:00,50.8,24.8,29.83,WSW,248,17.0,22.0,36,0.00,,,0.00,WeatherCatV1.11B39,2013-03-25 20:00:00,
2013-03-25 16:05:00,52.1,25.3,29.82,NW,315,11.0,19.0,35,0.00,,,0.00,WeatherCatV1.11B39,2013-03-25 20:05:00,
2013-03-25 16:10:00,52.2,24.7,29.83,West,262,6.0,26.0,34,0.00,,,0.00,WeatherCatV1.11B39,2013-03-25 20:10:00,
2013-03-25 16:15:00,51.0,24.3,29.82,WSW,258,13.0,23.0,35,0.00,,,0.00,WeatherCatV1.11B39,2013-03-25 20:15:00,
2013-03-25 16:20:00,51.0,24.3,29.82,NNW,340,16.0,21.0,35,0.00,,,0.00,WeatherCatV1.11B39,2013-03-25 20:20:00,
2013-03-25 16:25:00,51.5,24.8,29.83,WSW,253,10.0,14.0,35,0.00,,,0.00,WeatherCatV1.11B39,2013-03-25 20:25:00,
2013-03-25 16:30:00,51.3,23.9,29.82,NW,306,8.0,20.0,34,0.00,,,0.00,WeatherCatV1.11B39,2013-03-25 20:30:00,
2013-03-25 16:35:00,50.6,23.3,29.82,NW,310,9.0,21.0,34,0.00,,,0.00,WeatherCatV1.11B39,2013-03-25 20:35:00,
2013-03-25 16:40:00,51.2,24.5,29.82,WNW,302,3.0,20.0,35,0.00,,,0.00,WeatherCatV1.11B39,2013-03-25 20:40:00,
2013-03-25 16:45:00,51.5,24.8,29.83,West,265,8.0,19.0,35,0.00,,,0.00,WeatherCatV1.11B39,2013-03-25 20:45:00,
2013-03-25 16:50:00,51.0,22.9,29.83,West,265,14.0,30.0,33,0.00,,,0.00,WeatherCatV1.11B39,2013-03-25 20:50:00,
2013-03-25 16:55:00,51.0,23.6,29.83,NNW,337,1.0,19.0,34,0.00,,,0.00,WeatherCatV1.11B39,2013-03-25 20:55:00,
2013-03-25 17:00:00,50.8,22.7,29.83,West,272,12.0,23.0,33,0.00,,,0.00,WeatherCatV1.11B39,2013-03-25 21:00:00,
2013-03-25 17:05:00,50.5,21.8,29.83,West,266,14.0,20.0,32,0.00,,,0.00,WeatherCatV1.11B39,2013-03-25 21:05:00,
2013-03-25 17:10:00,50.9,23.5,29.83,NW,320,13.0,29.0,34,0.00,,,0.00,WeatherCatV1.11B39,2013-03-25 21:10:00,
2013-03-25 17:15:00,50.4,22.4,29.83,WNW,291,22.0,22.0,33,0.00,,,0.00,WeatherCatV1.11B39,2013-03-25 21:15:00,
2013-03-25 17:20:00,50.6,21.1,29.83,WNW,284,17.0,27.0,31,0.00,,,0.00,WeatherCatV1.11B39,2013-03-25 21:20:00,
2013-03-25 17:25:00,50.7,23.4,29.83,WNW,290,12.0,18.0,34,0.00,,,0.00,WeatherCatV1.11B39,2013-03-25 21:25:00,
2013-03-25 17:31:00,50.6,21.8,29.84,WNW,284,10.0,21.0,32,0.00,,,0.00,WeatherCatV1.11B39,2013-03-25 21:31:00,
2013-03-25 17:36:00,50.2,20.7,29.84,WSW,255,6.0,22.0,31,0.00,,,0.00,WeatherCatV1.11B39,2013-03-25 21:36:00,
2013-03-25 17:41:00,49.8,21.9,29.84,WSW,253,24.0,24.0,33,0.00,,,0.00,WeatherCatV1.11B39,2013-03-25 21:41:00,
2013-03-25 17:46:00,49.7,21.8,29.85,West,263,5.0,15.0,33,0.00,,,0.00,WeatherCatV1.11B39,2013-03-25 21:46:00,
2013-03-25 17:51:00,49.6,21.0,29.84,West,280,8.0,17.0,32,0.00,,,0.00,WeatherCatV1.11B39,2013-03-25 21:51:00,
2013-03-25 17:56:00,49.3,21.4,29.85,NW,315,11.0,21.0,33,0.00,,,0.00,WeatherCatV1.11B39,2013-03-25 21:56:00,
2013-03-25 18:01:00,49.0,21.9,29.85,NW,310,15.0,21.0,34,0.00,,,0.00,WeatherCatV1.11B39,2013-03-25 22:01:00,
2013-03-25 18:06:00,48.8,22.4,29.85,West,267,11.0,25.0,35,0.00,,,0.00,WeatherCatV1.11B39,2013-03-25 22:06:00,
2013-03-25 18:11:00,48.7,20.9,29.86,NW,321,13.0,21.0,33,0.00,,,0.00,WeatherCatV1.11B39,2013-03-25 22:11:00,
2013-03-25 18:16:00,48.6,21.5,29.86,SW,221,15.0,20.0,34,0.00,,,0.00,WeatherCatV1.11B39,2013-03-25 22:16:00,
2013-03-25 18:21:00,48.4,22.0,29.87,West,281,17.0,19.0,35,0.00,,,0.00,WeatherCatV1.11B39,2013-03-25 22:21:00,
2013-03-25 18:26:00,48.2,21.2,29.87,WNW,295,9.0,23.0,34,0.00,,,0.00,WeatherCatV1.11B39,2013-03-25 22:26:00,
2013-03-25 18:31:00,48.1,21.1,29.87,WNW,292,10.0,22.0,34,0.00,,,0.00,WeatherCatV1.11B39,2013-03-25 22:31:00,
2013-03-25 18:36:00,47.9,20.9,29.87,WNW,296,23.0,23.0,34,0.00,,,0.00,WeatherCatV1.11B39,2013-03-25 22:36:00,
2013-03-25 18:41:00,47.7,22.1,29.88,NW,309,6.0,8.0,36,0.00,,,0.00,WeatherCatV1.11B39,2013-03-25 22:41:00,
2013-03-25 18:46:00,47.4,21.1,29.88,West,273,10.0,21.0,35,0.00,,,0.00,WeatherCatV1.11B39,2013-03-25 22:46:00,
2013-03-25 18:51:00,47.3,21.7,29.88,NW,314,14.0,26.0,36,0.00,,,0.00,WeatherCatV1.11B39,2013-03-25 22:51:00,
2013-03-25 18:56:00,47.0,21.4,29.89,WSW,254,5.0,24.0,36,0.00,,,0.00,WeatherCatV1.11B39,2013-03-25 22:56:00,
2013-03-25 19:01:00,46.8,21.3,29.89,WNW,301,17.0,21.0,36,0.00,,,0.00,WeatherCatV1.11B39,2013-03-25 23:01:00,
2013-03-25 19:06:00,46.6,21.7,29.89,WSW,243,8.0,18.0,37,0.00,,,0.00,WeatherCatV1.11B39,2013-03-25 23:06:00,
2013-03-25 19:11:00,46.3,21.5,29.90,NW,313,3.0,15.0,37,0.00,,,0.00,WeatherCatV1.11B39,2013-03-25 23:11:00,
2013-03-25 19:16:00,46.1,20.6,29.90,NNW,345,17.0,22.0,36,0.00,,,0.00,WeatherCatV1.11B39,2013-03-25 23:16:00,
2013-03-25 19:21:00,45.8,20.4,29.91,NNW,328,14.0,27.0,36,0.00,,,0.00,WeatherCatV1.11B39,2013-03-25 23:21:00,
2013-03-25 19:25:00,47.3,21.7,29.88,WNW,300,10.0,26.0,36,0.00,,,0.00,WeatherCatV1.11B39,2013-03-25 23:25:00,
2013-03-25 19:26:00,45.5,20.8,29.91,NNW,329,7.0,16.0,37,0.00,,,0.00,WeatherCatV1.11B39,2013-03-25 23:26:00,
2013-03-25 19:30:00,47.3,21.7,29.88,WNW,300,10.0,26.0,36,0.00,,,0.00,WeatherCatV1.11B39,2013-03-25 23:30:00,
2013-03-25 19:35:00,46.8,21.9,29.89,WNW,293,10.0,26.0,37,0.00,,,0.00,WeatherCatV1.11B39,2013-03-25 23:35:00,
2013-03-25 19:40:00,46.8,21.9,29.89,WNW,293,10.0,26.0,37,0.00,,,0.00,WeatherCatV1.11B39,2013-03-25 23:40:00,
2013-03-25 19:45:00,46.3,21.5,29.89,WNW,285,12.0,25.0,37,0.00,,,0.00,WeatherCatV1.11B39,2013-03-25 23:45:00,
2013-03-25 19:50:00,46.3,21.5,29.89,WNW,285,12.0,25.0,37,0.00,,,0.00,WeatherCatV1.11B39,2013-03-25 23:50:00,
2013-03-25 20:00:00,45.9,21.1,29.90,WNW,290,10.0,26.0,37,0.00,,,0.00,WeatherCatV1.11B39,2013-03-26 00:00:00,
2013-03-25 20:05:00,46.8,21.9,29.89,WNW,293,10.0,26.0,37,0.00,,,0.00,WeatherCatV1.11B39,2013-03-26 00:05:00,
2013-03-25 20:10:00,46.8,21.9,29.89,WNW,293,10.0,26.0,37,0.00,,,0.00,WeatherCatV1.11B39,2013-03-26 00:10:00,
2013-03-25 20:15:00,46.3,21.5,29.89,WNW,285,12.0,25.0,37,0.00,,,0.00,WeatherCatV1.11B39,2013-03-26 00:15:00,
2013-03-25 20:20:00,46.3,21.5,29.89,WNW,285,12.0,25.0,37,0.00,,,0.00,WeatherCatV1.11B39,2013-03-26 00:20:00,
2013-03-25 20:25:00,47.3,21.7,29.88,WNW,300,10.0,26.0,36,0.00,,,0.00,WeatherCatV1.11B39,2013-03-26 00:25:00,
2013-03-25 20:30:00,47.3,21.7,29.88,WNW,300,10.0,26.0,36,0.00,,,0.00,WeatherCatV1.11B39,2013-03-26 00:30:00,
2013-03-25 20:32:00,45.9,21.1,29.90,WNW,290,10.0,26.0,37,0.00,,,0.00,WeatherCatV1.11B39,2013-03-26 00:32:00,
2013-03-25 20:35:00,46.8,21.9,29.89,WNW,293,10.0,26.0,37,0.00,,,0.00,WeatherCatV1.11B39,2013-03-26 00:35:00,
2013-03-25 20:40:00,46.8,21.9,29.89,WNW,293,10.0,26.0,37,0.00,,,0.00,WeatherCatV1.11B39,2013-03-26 00:40:00,
2013-03-25 20:45:00,46.3,21.5,29.89,WNW,285,12.0,25.0,37,0.00,,,0.00,WeatherCatV1.11B39,2013-03-26 00:45:00,
2013-03-25 20:50:00,46.3,21.5,29.89,WNW,285,12.0,25.0,37,0.00,,,0.00,WeatherCatV1.11B39,2013-03-26 00:50:00,
2013-03-25 20:55:00,47.3,21.7,29.88,WNW,300,10.0,26.0,36,0.00,,,0.00,WeatherCatV1.11B39,2013-03-26 00:55:00,
2013-03-25 21:00:00,47.3,21.7,29.88,WNW,300,10.0,26.0,36,0.00,,,0.00,WeatherCatV1.11B39,2013-03-26 01:00:00,
2013-03-25 21:02:00,45.9,21.1,29.90,WNW,290,10.0,26.0,37,0.00,,,0.00,WeatherCatV1.11B39,2013-03-26 01:02:00,
2013-03-25 21:05:00,46.8,21.9,29.89,WNW,293,10.0,26.0,37,0.00,,,0.00,WeatherCatV1.11B39,2013-03-26 01:05:00,
2013-03-25 21:10:00,46.8,21.9,29.89,WNW,293,10.0,26.0,37,0.00,,,0.00,WeatherCatV1.11B39,2013-03-26 01:10:00,
2013-03-25 21:15:00,46.3,21.5,29.89,WNW,285,12.0,25.0,37,0.00,,,0.00,WeatherCatV1.11B39,2013-03-26 01:15:00,
2013-03-25 21:20:00,46.3,21.5,29.89,WNW,285,12.0,25.0,37,0.00,,,0.00,WeatherCatV1.11B39,2013-03-26 01:20:00,
2013-03-25 21:25:00,47.3,21.7,29.88,WNW,300,10.0,26.0,36,0.00,,,0.00,WeatherCatV1.11B39,2013-03-26 01:25:00,
2013-03-25 21:30:00,47.3,21.7,29.88,WNW,300,10.0,26.0,36,0.00,,,0.00,WeatherCatV1.11B39,2013-03-26 01:30:00,
2013-03-25 21:32:00,45.9,21.1,29.90,WNW,290,10.0,26.0,37,0.00,,,0.00,WeatherCatV1.11B39,2013-03-26 01:32:00,
2013-03-25 21:35:00,46.8,21.9,29.89,WNW,293,10.0,26.0,37,0.00,,,0.00,WeatherCatV1.11B39,2013-03-26 01:35:00,
2013-03-25 21:40:00,46.8,21.9,29.89,WNW,293,10.0,26.0,37,0.00,,,0.00,WeatherCatV1.11B39,2013-03-26 01:40:00,
2013-03-25 21:45:00,46.3,21.5,29.89,WNW,285,12.0,25.0,37,0.00,,,0.00,WeatherCatV1.11B39,2013-03-26 01:45:00,
2013-03-25 21:50:00,46.3,21.5,29.89,WNW,285,12.0,25.0,37,0.00,,,0.00,WeatherCatV1.11B39,2013-03-26 01:50:00,
2013-03-25 21:55:00,47.3,21.7,29.88,WNW,300,10.0,26.0,36,0.00,,,0.00,WeatherCatV1.11B39,2013-03-26 01:55:00,
2013-03-25 22:00:00,47.3,21.7,29.88,WNW,300,10.0,26.0,36,0.00,,,0.00,WeatherCatV1.11B39,2013-03-26 02:00:00,
2013-03-25 22:01:00,45.9,21.1,29.90,WNW,290,10.0,26.0,37,0.00,,,0.00,WeatherCatV1.11B39,2013-03-26 02:01:00,
2013-03-25 22:05:00,46.8,21.9,29.89,WNW,293,10.0,26.0,37,0.00,,,0.00,WeatherCatV1.11B39,2013-03-26 02:05:00,
2013-03-25 22:10:00,46.8,21.9,29.89,WNW,293,10.0,26.0,37,0.00,,,0.00,WeatherCatV1.11B39,2013-03-26 02:10:00,
2013-03-25 22:15:00,46.3,21.5,29.89,WNW,285,12.0,25.0,37,0.00,,,0.00,WeatherCatV1.11B39,2013-03-26 02:15:00,
2013-03-25 22:20:00,46.3,21.5,29.89,WNW,285,12.0,25.0,37,0.00,,,0.00,WeatherCatV1.11B39,2013-03-26 02:20:00,
2013-03-25 22:25:00,47.3,21.7,29.88,WNW,300,10.0,26.0,36,0.00,,,0.00,WeatherCatV1.11B39,2013-03-26 02:25:00,
2013-03-25 22:30:00,47.3,21.7,29.88,WNW,300,10.0,26.0,36,0.00,,,0.00,WeatherCatV1.11B39,2013-03-26 02:30:00,
2013-03-25 22:31:00,45.9,21.1,29.90,WNW,290,10.0,26.0,37,0.00,,,0.00,WeatherCatV1.11B39,2013-03-26 02:31:00,
2013-03-25 22:35:00,46.8,21.9,29.89,WNW,293,10.0,26.0,37,0.00,,,0.00,WeatherCatV1.11B39,2013-03-26 02:35:00,
2013-03-25 22:40:00,46.8,21.9,29.89,WNW,293,10.0,26.0,37,0.00,,,0.00,WeatherCatV1.11B39,2013-03-26 02:40:00,
2013-03-25 22:45:00,46.3,21.5,29.89,WNW,285,12.0,25.0,37,0.00,,,0.00,WeatherCatV1.11B39,2013-03-26 02:45:00,
2013-03-25 22:50:00,46.3,21.5,29.89,WNW,285,12.0,25.0,37,0.00,,,0.00,WeatherCatV1.11B39,2013-03-26 02:50:00,
2013-03-25 22:55:00,47.3,21.7,29.88,WNW,300,10.0,26.0,36,0.00,,,0.00,WeatherCatV1.11B39,2013-03-26 02:55:00,
2013-03-25 23:00:00,47.3,21.7,29.88,WNW,300,10.0,26.0,36,0.00,,,0.00,WeatherCatV1.11B39,2013-03-26 03:00:00,
2013-03-25 23:01:00,45.9,21.1,29.90,WNW,290,10.0,26.0,37,0.00,,,0.00,WeatherCatV1.11B39,2013-03-26 03:01:00,
2013-03-25 23:05:00,46.8,21.9,29.89,WNW,293,10.0,26.0,37,0.00,,,0.00,WeatherCatV1.11B39,2013-03-26 03:05:00,
2013-03-25 23:10:00,46.8,21.9,29.89,WNW,293,10.0,26.0,37,0.00,,,0.00,WeatherCatV1.11B39,2013-03-26 03:10:00,
2013-03-25 23:15:00,46.3,21.5,29.89,WNW,285,12.0,25.0,37,0.00,,,0.00,WeatherCatV1.11B39,2013-03-26 03:15:00,
2013-03-25 23:20:00,46.3,21.5,29.89,WNW,285,12.0,25.0,37,0.00,,,0.00,WeatherCatV1.11B39,2013-03-26 03:20:00,
2013-03-25 23:25:00,47.3,21.7,29.88,WNW,300,10.0,26.0,36,0.00,,,0.00,WeatherCatV1.11B39,2013-03-26 03:25:00,
2013-03-25 23:30:00,47.3,21.7,29.88,WNW,300,10.0,26.0,36,0.00,,,0.00,WeatherCatV1.11B39,2013-03-26 03:30:00,
2013-03-25 23:31:00,45.9,21.1,29.90,WNW,290,10.0,26.0,37,0.00,,,0.00,WeatherCatV1.11B39,2013-03-26 03:31:00,
2013-03-25 23:35:00,46.8,21.9,29.89,WNW,293,10.0,26.0,37,0.00,,,0.00,WeatherCatV1.11B39,2013-03-26 03:35:00,
2013-03-25 23:40:00,46.8,21.9,29.89,WNW,293,10.0,26.0,37,0.00,,,0.00,WeatherCatV1.11B39,2013-03-26 03:40:00,
2013-03-25 23:45:00,46.3,21.5,29.89,WNW,285,12.0,25.0,37,0.00,,,0.00,WeatherCatV1.11B39,2013-03-26 03:45:00,
2013-03-25 23:50:00,46.3,21.5,29.89,WNW,285,12.0,25.0,37,0.00,,,0.00,WeatherCatV1.11B39,2013-03-26 03:50:00,
2013-03-25 23:55:00,47.3,21.7,29.88,WNW,300,10.0,26.0,36,0.00,,,0.00,WeatherCatV1.11B39,2013-03-26 03:55:00,